Orbital Elements at Epoch 2459200.5 (2020-Dec-17.0) TDB
Reference: JPL 23 (heliocentric ecliptic J2000)
Element | Value | Uncertainty (1-sigma) | Units |
e | .1179851848554955 | 3.9726e-08 | |
a | 2.597562539859124 | 1.4591e-08 | au |
q | 2.291088643420134 | 1.0567e-07 | au |
i | 12.81347232462451 | 4.595e-06 | deg |
node | 279.0362477291099 | 2.7055e-05 | deg |
peri | 180.1449174101296 | 4.1462e-05 | deg |
M | 214.0100645503766 | 3.1554e-05 | deg |
tp | 2459820.608752932451 (2022-Aug-29.10875293) | 0.00013617 | TDB |
period | 1529.140692939859 4.19 | 1.2885e-05 3.528e-08 | d yr |
n | .235426342168607 | 1.9837e-09 | deg/d |
Q | 2.904036436298113 | 1.6313e-08 | au |
|
| | Orbit Determination Parameters
Additional Information
|